Regional Weather Roundup
Issued by NWS Midland/Odessa, TX

Home | Current Version | Previous Version | Text Only | Print | Product List | Glossary On
Versions: 1 2 3 4 5 6 7 8 9 10 11 12 13 14 15 16 17 18 19 20 21 22 23 24 25 26 27 28 29 30 31 32 33 34 35 36 37 38 39 40 41 42 43 44 45 46 47 48 49 50
000
ASUS44 KMAF 290210
RWRMAF
MIDLAND AREA WEATHER ROUNDUP
NATIONAL WEATHER SERVICE MIDLAND TX
900 PM CDT THU MAY 28 2015

...IN SOUTHWEST TEXAS AND SOUTHEAST NEW MEXICO...

CITY           SKY/WX    TMP DP  RH WIND       PRES   REMARKS
ALPINE         PTCLDY    64  58  80 CALM      30.04S
ANDREWS        FAIR      61  59  94 NE15      29.97R
ARTESIA        PTCLDY    77  55  47 E21G26    29.91R
BIG SPRING     CLOUDY    61  59  94 E28       29.96F
CARLSBAD       PTCLDY    77  52  41 SE13      29.89R
DRYDEN           N/A     75  58  55 N12G24    29.90R
FORT STOCKTON  CLOUDY    64  58  80 SE9       29.90R
GUAD PASS      CLEAR     78  15   9 W20G26    30.02R
HOBBS          CLOUDY    63  57  82 E18G26    29.97R
MARFA          CLEAR     72  46  40 NE9       30.01R
MIDLAND AIRPK  CLOUDY    65  57  75 NE18G24   29.93R
MIDLAND INTL   CLOUDY    67  55  65 SE18G25   29.89S
ODESSA         CLOUDY    67  55  65 E15       29.91R
PECOS          CLOUDY    66  60  79 CALM      29.86S
PRESIDIO       FAIR      93  22   8 CALM      29.82R
SEMINOLE       CLOUDY    62  55  78 E16G22    29.98S
SNYDER         RAIN      61  59  96 E9        30.02F
WINK           CLOUDY    70  54  56 SE6       29.85R
$$
...OTHER STATIONS IN TEXAS...

CITY           SKY/WX    TMP DP  RH WIND       PRES   REMARKS
ABILENE        CLOUDY    65  62  90 N10       30.01S THUNDER
AMARILLO       CLOUDY    64  53  67 VRB6      29.96S
AUSTIN         PTCLDY    79  72  79 S9        29.92S
BROWNSVILLE    CLOUDY    80  75  84 SE12      29.93S
CORPUS CHRISTI MOCLDY    81  74  79 SE13      29.93R
DALLAS FTW     CLOUDY    79  69  71 S10       29.93R
DEL RIO        MOCLDY    84  72  67 E9        29.86R
EL PASO        PTCLDY    89  15   6 W20       29.90R
HOUSTON INT    MOCLDY    79  74  84 SE12      29.96R
LUBBOCK        CLOUDY    64  52  64 S16       29.89S
SAN ANGELO     TSTM      63  60  90 N20G30    30.06R
SAN ANTONIO    MOCLDY    80  70  71 SE13G25   29.94R
WACO           PTCLDY    78  71  79 SE7       29.94R
WICHITA FALLS  NOT AVBL
$$
...OTHER LOCATIONS IN NEW MEXICO...

CITY           SKY/WX    TMP DP  RH WIND       PRES   REMARKS
ALAMAGORDO     CLEAR     84  19   9 SW6       29.91R
ALBUQUERQUE    PTCLDY    81  13   7 W14       29.98R
CANNON AFB     NOT AVBL
CLOVIS         CLOUDY    57  54  88 SW9       29.95
HOLLOMAN AFB   CLEAR     85  19   8 SW8       29.88R
ROSWELL        CLOUDY    73  58  59 E24G33    29.89R
RUIDOSO        CLEAR     70  16  12 NW6       30.11R
SANTA FE       CLEAR     72  18  13 NW13      30.04R
TRUTH OR CONSE CLEAR     86  14   7 W13G21    29.92R
TUCUMCARI      MOCLDY    70  57  63 S14       29.89S
$$



USA.gov is the U.S. government's official web portal to all federal, state and local government web resources and services.